カタログに戻る

FENGYUN 1C DEB

運用中PO
NORAD 31673·DEBRIS·🇨🇳 China

打ち上げ May 10, 1999 から Taiyuan Satellite Launch Center

Loading…

次のパス (今後24時間)

TLE

最新Source: Space-Track

元期: Sep 13, 2026, 21:06 UTC

1 31673U 99025CCF 26256.87975752  .00000328  00000-0  12977-3 0  9998
2 31673  99.3499 118.1903 0124326 336.5955  22.9597 14.32278755688293

AllMySatでFENGYUN 1C DEBをリアルタイム追跡

Download on the App Store